W3EJE-13 Weather Reports


Display with metric or nautical units.
time (UTC)temp
F
wind
direction
speed
MPH
gust
MPH
rain 1hr
in
rain 24hr
in
rain mn
in
humidity
%
barometer
mb
20260901232133 78 264 3.0 3.0 0.00 0.01 0.01 84 1020.5
20260901231630 79 4 4.0 6.0 0.00 0.01 0.01 82 1020.7
20260901231126 79 331 4.0 5.0 0.00 0.01 0.01 82 1020.7
20260901230622 80 260 2.0 2.0 0.00 0.01 0.01 80 1020.6
20260901230121 80 253 3.0 3.0 0.00 0.01 0.01 79 1020.3
20260901225616 80 329 2.0 2.0 0.00 0.01 0.01 79 1020.7
20260901225116 79 289 5.0 6.0 0.00 0.01 0.01 80 1020.4
20260901224612 80 265 7.0 8.0 0.00 0.01 0.01 80 1020.7
20260901224108 80 261 3.0 3.0 0.00 0.01 0.01 80 1020.6
20260901223603 80 14 15.0 18.0 0.00 0.01 0.01 79 1020.7
20260901223104 81 279 5.0 6.0 0.00 0.01 0.01 80 1020.6
20260901222601 80 239 5.0 6.0 0.00 0.01 0.01 81 1020.3
20260901222056 81 13 5.0 6.0 0.00 0.01 0.01 80 1020.6
20260901221552 81 267 4.0 5.0 0.00 0.01 0.01 80 1020.3
20260901221047 81 337 7.0 8.0 0.00 0.01 0.01 81 1020.2
20260901220547 81 285 4.0 5.0 0.00 0.01 0.01 81 1020.3
20260901220046 82 282 3.0 5.0 0.00 0.01 0.01 81 1020.3
20260901215543 81 328 6.0 9.0 0.00 0.01 0.01 82 1020.4
20260901215038 82 281 4.0 5.0 0.00 0.01 0.01 81 1020.6
20260901214538 81 257 3.0 5.0 0.00 0.01 0.01 82 1020.2
20260901214032 81 283 6.0 7.0 0.00 0.01 0.01 83 1020.4
20260901213531 82 306 3.0 3.0 0.00 0.01 0.01 82 1020.5
20260901213025 82 285 5.0 6.0 0.00 0.01 0.01 81 1020.5
20260901212520 81 265 5.0 7.0 0.00 0.01 0.01 83 1020.6
20260901212017 80 228 5.0 9.0 0.00 0.01 0.01 85 1020.5
20260901211512 82 2 9.0 10.0 0.00 0.01 0.01 83 1020.4
20260901211008 81 268 4.0 5.0 0.00 0.01 0.01 83 1020.3
20260901210503 82 283 4.0 6.0 0.00 0.01 0.01 82 1020.5
20260901205959 81 263 5.0 6.0 0.00 0.01 0.01 84 1020.6
20260901205454 81 4 7.0 8.0 0.00 0.01 0.01 84 1020.5
20260901204949 82 279 4.0 5.0 0.00 0.01 0.01 85 1020.5
20260901204446 82 323 5.0 6.0 0.00 0.01 0.01 81 1020.7
20260901203945 82 348 5.0 8.0 0.00 0.01 0.01 81 1020.5
20260901203440 82 286 6.0 8.0 0.00 0.01 0.01 80 1020.5
20260901202935 83 273 5.0 7.0 0.00 0.01 0.01 80 1020.5
20260901202429 83 243 3.0 3.0 0.00 0.01 0.01 79 1020.4
20260901201926 83 12 3.0 7.0 0.00 0.01 0.01 80 1020.6
20260901201420 83 264 5.0 6.0 0.00 0.01 0.01 81 1020.3
20260901200920 82 272 4.0 5.0 0.00 0.01 0.01 82 1020.6
20260901200414 82 260 5.0 7.0 0.00 0.01 0.01 81 1020.6
20260901195914 82 30 6.0 8.0 0.00 0.01 0.01 80 1020.8
20260901195407 82 299 4.0 7.0 0.00 0.01 0.01 80 1020.7
20260901194902 82 354 9.0 9.0 0.00 0.01 0.01 81 1020.7
20260901194356 82 352 7.0 9.0 0.00 0.01 0.01 80 1021.0
20260901193853 83 349 9.0 10.0 0.00 0.01 0.01 79 1020.7
20260901193352 83 14 7.0 8.0 0.00 0.01 0.01 80 1020.9
20260901192852 84 357 8.0 11.0 0.00 0.01 0.01 80 1020.7
20260901192348 85 302 7.0 8.0 0.00 0.01 0.01 78 1020.8
20260901191844 85 219 6.0 8.0 0.00 0.01 0.01 81 1020.8
20260901191339 85 266 3.0 5.0 0.00 0.01 0.01 78 1020.7
20260901190835 84 358 9.0 11.0 0.00 0.01 0.01 80 1020.9
20260901190335 83 265 5.0 7.0 0.00 0.01 0.01 81 1020.7
20260901185833 84 288 7.0 8.0 0.00 0.01 0.01 79 1020.7
20260901185332 84 343 7.0 9.0 0.00 0.01 0.01 78 1021.0
20260901184828 85 264 8.0 9.0 0.00 0.01 0.01 79 1021.0
20260901184323 85 287 8.0 9.0 0.00 0.01 0.01 77 1020.9
20260901183819 84 325 9.0 11.0 0.00 0.01 0.01 77 1020.9
20260901183318 84 14 8.0 9.0 0.00 0.01 0.01 77 1021.0
20260901182815 84 270 3.0 5.0 0.00 0.01 0.01 78 1021.3
20260901182314 84 355 5.0 7.0 0.00 0.01 0.01 80 1021.7
20260901181809 84 274 5.0 8.0 0.00 0.01 0.01 79 1021.4
20260901181303 84 263 4.0 6.0 0.00 0.01 0.01 79 1021.3
20260901180757 85 238 7.0 11.0 0.00 0.01 0.01 79 1021.3
20260901180256 84 9 9.0 13.0 0.00 0.01 0.01 78 1021.7
20260901175755 84 327 13.0 17.0 0.00 0.01 0.01 78 1021.5
20260901175250 84 318 5.0 7.0 0.00 0.01 0.01 77 1021.5
20260901174745 84 295 4.0 6.0 0.00 0.01 0.01 79 1021.3
20260901174241 84 10 13.0 17.0 0.00 0.01 0.01 79 1021.6
20260901173737 84 327 9.0 11.0 0.00 0.01 0.01 78 1021.7
20260901173231 85 265 7.0 9.0 0.00 0.01 0.01 77 1021.7
20260901172728 84 289 7.0 7.0 0.00 0.01 0.01 80 1021.5
20260901172226 84 228 9.0 11.0 0.00 0.01 0.01 80 1021.6
20260901171725 84 281 4.0 6.0 0.00 0.01 0.01 78 1021.6
20260901171224 84 284 9.0 11.0 0.00 0.01 0.01 80 1021.3
20260901170723 83 336 9.0 10.0 0.00 0.01 0.01 81 1021.4
20260901170218 83 312 6.0 9.0 0.00 0.01 0.01 80 1021.5
20260901165717 83 254 7.0 8.0 0.00 0.01 0.01 80 1021.4
20260901165212 83 300 15.0 18.0 0.00 0.01 0.01 81 1021.4
20260901164708 82 197 6.0 7.0 0.00 0.01 0.01 81 1021.5
20260901164203 82 305 4.0 5.0 0.00 0.01 0.01 82 1021.3
20260901163658 82 317 7.0 9.0 0.00 0.01 0.01 83 1021.4
20260901163157 82 251 5.0 7.0 0.00 0.01 0.01 83 1021.6
20260901162653 82 305 3.0 3.0 0.00 0.01 0.01 83 1021.2
20260901162152 81 348 5.0 6.0 0.00 0.01 0.01 83 1021.5
20260901161651 82 355 13.0 17.0 0.00 0.01 0.01 83 1021.7
20260901161151 81 345 6.0 7.0 0.00 0.01 0.01 84 1021.4
20260901160648 82 269 6.0 7.0 0.00 0.01 0.01 84 1021.4
20260901160142 81 262 8.0 10.0 0.00 0.01 0.01 85 1021.6
20260901155642 81 344 7.0 9.0 0.00 0.01 0.01 84 1021.6
20260901155137 81 300 6.0 7.0 0.00 0.01 0.01 84 1021.6
20260901154632 81 351 6.0 7.0 0.00 0.01 0.01 85 1021.7
20260901154126 81 31 11.0 13.0 0.00 0.01 0.01 84 1021.6
20260901153616 81 39 5.0 7.0 0.00 0.01 0.01 84 1021.6
20260901153115 80 309 7.0 9.0 0.00 0.01 0.01 85 1021.7
20260901152610 80 266 5.0 7.0 0.00 0.01 0.01 85 1021.5
20260901152109 80 254 2.0 5.0 0.00 0.01 0.01 85 1021.5
20260901151604 80 347 2.0 3.0 0.00 0.01 0.01 86 1021.6
20260901151104 80 351 10.0 13.0 0.00 0.01 0.01 86 1021.6
20260901150557 80 255 3.0 3.0 0.00 0.01 0.01 88 1021.7
20260901150055 80 285 2.0 5.0 0.00 0.01 0.01 87 1021.4
20260901145549 80 313 0.0 0.0 0.00 0.01 0.01 88 1021.6
20260901145048 79 255 0.0 0.0 0.00 0.01 0.01 89 1021.6
20260901144544 79 301 0.0 0.0 0.00 0.01 0.01 89 1021.6
20260901144039 79 260 1.0 3.0 0.00 0.01 0.01 88 1021.3
20260901143535 78 357 3.0 6.0 0.00 0.01 0.01 88 1021.4
20260901143032 78 279 0.0 0.0 0.00 0.01 0.01 89 1021.6
20260901142532 79 239 5.0 6.0 0.00 0.01 0.01 88 1021.5
20260901142026 79 316 5.0 7.0 0.00 0.01 0.01 88 1021.6
20260901141526 80 264 3.0 6.0 0.00 0.01 0.01 87 1021.6
20260901141021 80 259 0.0 0.0 0.00 0.01 0.01 88 1021.7
20260901140520 79 270 0.0 0.0 0.00 0.01 0.01 89 1021.5
20260901140015 78 268 0.0 0.0 0.00 0.01 0.01 91 1021.7
20260901135514 77 347 0.0 0.0 0.00 0.01 0.01 91 1021.8
20260901135010 77 273 0.0 0.0 0.00 0.01 0.01 93 1021.5
20260901134506 76 279 0.0 0.0 0.00 0.01 0.01 93 1021.8
20260901134001 76 287 0.0 0.0 0.00 0.01 0.01 93 1021.9
20260901133459 76 257 0.0 0.0 0.00 0.01 0.01 94 1021.7
20260901132958 76 242 0.0 0.0 0.00 0.01 0.01 94 1021.9
20260901132457 76 246 0.0 0.0 0.00 0.01 0.01 93 1021.9
20260901131957 76 263 0.0 0.0 0.00 0.01 0.01 93 1022.1
20260901131457 76 45 0.0 0.0 0.00 0.01 0.01 93 1021.9
20260901130952 77 260 0.0 0.0 0.00 0.01 0.01 92 1022.1
20260901130447 77 267 0.0 0.0 0.00 0.01 0.01 92 1022.0
20260901125944 77 266 0.0 0.0 0.00 0.01 0.01 92 1022.1
20260901125444 77 298 0.0 0.0 0.00 0.01 0.01 92 1022.1
20260901124939 77 270 0.0 0.0 0.00 0.01 0.01 92 1022.1
20260901124434 77 270 0.0 0.0 0.00 0.01 0.01 92 1022.1
20260901123929 76 8 0.0 0.0 0.00 0.01 0.01 93 1022.2
20260901123424 75 254 0.0 0.0 0.00 0.01 0.01 94 1022.1
20260901122922 75 322 0.0 0.0 0.00 0.01 0.01 95 1021.9
20260901122416 74 245 0.0 0.0 0.00 0.01 0.01 96 1022.2
20260901121916 74 262 0.0 0.0 0.00 0.01 0.01 97 1022.1
20260901121411 73 266 0.0 0.0 0.00 0.01 0.01 99 1022.0
20260901120906 72 260 0.0 0.0 0.00 0.01 0.01 99 1022.0
20260901120406 72 258 0.0 0.0 0.00 0.01 0.01 99 1022.0
20260901115902 71 240 0.0 0.0 0.00 0.01 0.01 99 1022.1
20260901115401 71 270 0.0 0.0 0.00 0.01 0.01 99 1022.0
20260901114859 71 248 0.0 0.0 0.00 0.01 0.01 99 1022.0
20260901114355 71 255 0.0 0.0 0.00 0.01 0.01 99 1021.9
20260901113853 70 262 0.0 0.0 0.00 0.01 0.01 99 1021.9
20260901113352 68 270 0.0 0.0 0.00 0.01 0.01 99 1021.7
20260901112847 68 240 0.0 0.0 0.00 0.01 0.01 99 1021.9
20260901112347 68 240 0.0 0.0 0.00 0.01 0.01 99 1021.9
20260901111842 67 239 0.0 0.0 0.00 0.01 0.01 99 1021.9
20260901111340 67 239 0.0 0.0 0.00 0.01 0.01 99 1021.6
20260901110839 67 242 0.0 0.0 0.00 0.01 0.01 99 1021.8
20260901110335 67 242 0.0 0.0 0.00 0.01 0.01 99 1021.6
20260901105831 67 226 0.0 0.0 0.00 0.01 0.01 99 1021.4
20260901105326 67 234 0.0 0.0 0.00 0.01 0.01 99 1021.6
20260901104823 67 238 0.0 0.0 0.00 0.01 0.01 99 1021.4
20260901104317 67 239 0.0 0.0 0.00 0.01 0.01 99 1021.5
20260901103813 66 236 0.0 0.0 0.00 0.01 0.01 99 1021.3
20260901103312 67 242 0.0 0.0 0.00 0.01 0.01 99 1021.5
20260901102807 67 238 0.0 0.0 0.00 0.01 0.01 99 1021.4
20260901102305 67 242 0.0 0.0 0.00 0.01 0.01 99 1021.4
20260901101757 67 238 0.0 0.0 0.00 0.01 0.01 99 1021.5
20260901101252 67 232 0.0 0.0 0.00 0.01 0.01 99 1021.5
20260901100751 67 234 0.0 0.0 0.00 0.01 0.01 99 1021.5
20260901100246 67 237 0.0 0.0 0.00 0.01 0.01 99 1021.2
20260901095744 67 236 0.0 0.0 0.00 0.01 0.01 99 1021.4
20260901095242 67 236 0.0 0.0 0.00 0.01 0.01 99 1021.6
20260901094737 67 233 0.0 0.0 0.00 0.01 0.01 99 1021.4
20260901094232 67 233 0.0 0.0 0.00 0.01 0.01 99 1021.6
20260901093727 67 233 0.0 0.0 0.00 0.01 0.01 99 1021.4
20260901093226 67 233 0.0 0.0 0.00 0.01 0.01 99 1021.4
20260901092722 67 233 0.0 0.0 0.00 0.01 0.01 99 1021.4
20260901092218 67 236 0.0 0.0 0.00 0.01 0.01 99 1021.6
20260901091713 67 236 0.0 0.0 0.00 0.01 0.01 99 1021.5
20260901091208 68 229 0.0 0.0 0.00 0.01 0.01 99 1021.5
20260901090703 68 230 0.0 0.0 0.00 0.01 0.01 99 1021.5
20260901090158 68 230 0.0 0.0 0.00 0.01 0.01 99 1021.7
20260901085654 68 229 0.0 0.0 0.00 0.01 0.01 99 1021.5
20260901085149 68 221 0.0 0.0 0.00 0.01 0.01 99 1021.3
20260901084645 68 226 0.0 0.0 0.00 0.01 0.01 99 1021.4
20260901084142 68 233 0.0 0.0 0.00 0.01 0.01 99 1021.4
20260901083641 68 235 0.0 0.0 0.00 0.01 0.01 99 1021.4
20260901083140 68 227 0.0 0.0 0.00 0.01 0.01 99 1021.4
20260901082634 68 233 0.0 0.0 0.00 0.01 0.01 99 1021.5
20260901082130 68 227 0.0 0.0 0.00 0.01 0.01 99 1021.8
20260901081625 68 225 0.0 0.0 0.00 0.01 0.01 99 1021.7
20260901081120 67 234 0.0 0.0 0.00 0.01 0.01 99 1021.5
20260901080614 68 238 0.0 0.0 0.00 0.01 0.01 99 1021.5
20260901080113 67 233 0.0 0.0 0.00 0.01 0.01 99 1021.7
20260901075609 68 238 0.0 0.0 0.00 0.01 0.01 99 1021.8
20260901075108 68 235 0.0 0.0 0.07 0.01 0.01 99 1021.8
20260901074607 67 231 0.0 0.0 0.07 0.01 0.01 99 1021.6
20260901074103 67 220 0.0 0.0 0.00 0.00 0.00 99 1021.6
20260901073559 67 230 0.0 0.0 0.00 0.00 0.00 99 1021.4
20260901073059 67 227 0.0 0.0 0.00 0.00 0.00 99 1021.5
20260901072555 67 231 0.0 0.0 0.00 0.00 0.00 99 1021.7
20260901072049 67 231 0.0 0.0 0.00 0.00 0.00 99 1021.6
20260901071550 67 225 0.0 0.0 0.00 0.00 0.00 99 1021.6
20260901071048 67 227 0.0 0.0 0.00 0.00 0.00 99 1021.7
20260901070544 67 234 0.0 0.0 0.00 0.00 0.00 99 1021.8
20260901070039 67 225 0.0 0.0 0.00 0.00 0.00 99 1021.9
20260901065533 67 228 0.0 0.0 0.00 0.00 0.00 99 1021.8
20260901065027 67 230 0.0 0.0 0.00 0.00 0.00 99 1021.9
20260901064525 67 233 0.0 0.0 0.00 0.00 0.00 99 1021.7
20260901064021 66 227 0.0 0.0 0.00 0.00 0.00 99 1021.8
20260901063517 66 227 0.0 0.0 0.00 0.00 0.00 99 1021.8
20260901063013 66 227 0.0 0.0 0.00 0.00 0.00 99 1022.0
20260901062509 66 227 0.0 0.0 0.00 0.00 0.00 99 1022.1
20260901062005 66 228 0.0 0.0 0.00 0.00 0.00 99 1022.0
20260901061501 66 228 0.0 0.0 0.00 0.00 0.00 99 1022.2
20260901060955 66 226 0.0 0.0 0.00 0.00 0.00 99 1022.3
20260901060450 66 228 0.0 0.0 0.00 0.00 0.00 99 1022.3
20260901055949 66 227 0.0 0.0 0.00 0.00 0.00 99 1022.2
20260901055446 66 227 0.0 0.0 0.00 0.00 0.00 99 1022.1
20260901054943 66 229 0.0 0.0 0.00 0.00 0.00 99 1022.2
20260901054440 66 230 0.0 0.0 0.00 0.00 0.00 99 1022.2
20260901053935 66 230 0.0 0.0 0.00 0.00 0.00 99 1022.4
20260901053431 66 230 0.0 0.0 0.00 0.00 0.00 99 1022.4
20260901052926 66 230 0.0 0.0 0.00 0.00 0.00 99 1022.2
20260901052421 66 230 0.0 0.0 0.00 0.00 0.00 99 1022.1
20260901051920 66 230 0.0 0.0 0.00 0.00 0.00 99 1022.4
20260901051416 66 228 0.0 0.0 0.00 0.00 0.00 99 1022.5
20260901050910 66 230 0.0 0.0 0.00 0.00 0.00 99 1022.4
20260901050406 66 230 0.0 0.0 0.00 0.00 0.00 99 1022.4
20260901045905 66 230 0.0 0.0 0.00 0.00 0.00 99 1022.5
20260901045400 66 230 0.0 0.0 0.00 0.00 0.00 99 1022.3
20260901044855 67 229 0.0 0.0 0.00 0.00 0.00 99 1022.2
20260901044351 67 231 0.0 0.0 0.00 0.00 0.00 99 1022.2
20260901043847 67 231 0.0 0.0 0.00 0.00 0.00 99 1022.2
20260901043343 67 233 0.0 0.0 0.00 0.00 0.00 99 1022.2
20260901042842 67 230 0.0 0.0 0.00 0.00 0.00 99 1022.2
20260901042337 67 230 0.0 0.0 0.00 0.00 0.00 99 1021.9
20260901041832 67 229 0.0 0.0 0.00 0.00 0.00 99 1022.2
20260901041328 68 226 0.0 0.0 0.00 0.00 0.00 99 1022.1
20260901040822 68 228 0.0 0.0 0.00 0.00 0.00 99 1022.1
20260901040321 68 231 0.0 0.0 0.00 0.00 0.00 99 1022.3
20260901035821 68 231 0.0 0.0 0.00 0.00 0.00 99 1022.3
20260901035320 68 231 0.0 0.0 0.00 0.00 0.00 99 1022.4
20260901034818 68 231 0.0 0.0 0.00 0.00 0.00 99 1022.4
20260901034314 68 232 0.0 0.0 0.00 0.00 0.00 99 1022.5
20260901033808 68 231 0.0 0.0 0.00 0.00 0.00 99 1022.3
20260901033307 68 231 0.0 0.0 0.00 0.00 0.00 99 1022.5
20260901032806 68 231 0.0 0.0 0.00 0.00 0.00 99 1022.6
20260901032306 68 231 0.0 0.0 0.00 0.00 0.00 99 1022.5
20260901031801 68 232 0.0 0.0 0.00 0.00 0.00 99 1022.6
20260901031256 69 232 0.0 0.0 0.00 0.00 0.00 99 1022.5
20260901030751 69 231 0.0 0.0 0.00 0.00 0.00 99 1022.7
20260901030245 69 232 0.0 0.0 0.00 0.00 0.00 99 1022.7
20260901025745 69 232 0.0 0.0 0.00 0.00 0.00 99 1022.6
20260901025240 69 231 0.0 0.0 0.00 0.00 0.00 99 1023.0
20260901024735 69 232 0.0 0.0 0.00 0.00 0.00 99 1022.7
20260901024234 69 232 0.0 0.0 0.00 0.00 0.00 99 1023.0
20260901023732 69 232 0.0 0.0 0.00 0.00 0.00 99 1022.8
20260901023228 69 232 0.0 0.0 0.00 0.00 0.00 99 1023.0
20260901022723 69 232 0.0 0.0 0.00 0.00 0.00 99 1022.8
20260901022218 69 232 0.0 0.0 0.00 0.00 0.00 99 1023.3
20260901021713 69 232 0.0 0.0 0.00 0.00 0.00 99 1023.0
20260901021209 69 232 0.0 0.0 0.00 0.00 0.00 99 1023.3
20260901020704 69 232 0.0 0.0 0.00 0.00 0.00 99 1023.2
20260901020159 69 232 0.0 0.0 0.00 0.00 0.00 99 1022.8
20260901015654 69 232 0.0 0.0 0.00 0.00 0.00 99 1023.2
20260901015155 69 232 0.0 0.0 0.00 0.00 0.00 99 1022.7
20260901014649 69 232 0.0 0.0 0.00 0.00 0.00 99 1022.8
20260901014145 69 235 0.0 0.0 0.00 0.00 0.00 99 1022.8
20260901013641 70 236 0.0 0.0 0.00 0.00 0.00 99 1022.5
20260901013136 70 239 0.0 0.0 0.00 0.00 0.00 99 1023.0
20260901012631 70 239 0.0 0.0 0.00 0.00 0.00 99 1022.7
20260901012126 70 231 0.0 0.0 0.00 0.00 0.00 99 1022.6
20260901011622 70 237 0.0 0.0 0.00 0.00 0.00 99 1022.4
20260901011121 70 236 0.0 0.0 0.00 0.00 0.00 99 1022.7
20260901010616 71 237 0.0 0.0 0.00 0.00 0.00 99 1022.5
20260901010115 71 237 0.0 0.0 0.00 0.00 0.00 99 1022.6
20260901005615 71 237 0.0 0.0 0.00 0.00 0.00 99 1022.2
20260901005110 71 236 0.0 0.0 0.00 0.00 0.00 99 1022.0
20260901004609 71 237 0.0 0.0 0.00 0.00 0.00 98 1022.0
20260901004104 71 237 0.0 0.0 0.00 0.00 0.00 98 1022.0
20260901003559 72 237 0.0 0.0 0.00 0.00 0.00 98 1022.0
20260901003057 72 229 0.0 0.0 0.00 0.00 0.00 98 1022.1
20260901002552 72 237 0.0 0.0 0.00 0.00 0.00 98 1022.1
20260901002047 72 238 0.0 0.0 0.00 0.00 0.00 97 1021.9
20260901001542 73 238 0.0 0.0 0.00 0.00 0.00 97 1021.9
20260901001037 73 238 0.0 0.0 0.00 0.00 0.00 96 1022.0
20260901000532 73 239 0.0 0.0 0.00 0.00 0.00 96 1022.0
20260901000028 73 239 0.0 0.0 0.00 0.00 0.00 95 1021.9
20260831235521 74 239 0.0 0.0 0.00 0.00 0.00 95 1022.0
20260831235017 74 236 0.0 0.0 0.00 0.00 0.00 94 1021.8
20260831234511 74 238 0.0 0.0 0.00 0.00 0.00 94 1021.9
20260831234007 74 252 0.0 0.0 0.00 0.00 0.00 93 1022.1
20260831233501 75 253 0.0 0.0 0.00 0.00 0.00 93 1022.3
20260831232957 75 253 0.0 0.0 0.00 0.00 0.00 91 1022.1